User: anonymous   Login
Location: Bowman Observatory
(41.0326°N, 73.6210°W)
Time: 15:36:39
(UTC-05:00)
Language:

Cosmos 2298 Rocket - Orbit

View from above orbital plane
View from above orbital plane
View from above satellite
View from above satellite

Ground track
Ground track

The orbit data is extracted from the following two-line orbital elements,

1 23432U 94083B   17058.18951441  .00000046  00000-0  26018-4 0  9993
2 23432  74.0330 139.1204 0005222   0.5234  26.7910 14.33466667160545
Epoch (UTC): 27 February 2017 04:32:54
Eccentricity: 0.0005222
inclination: 74.0330°
perigee height: 776 km
apogee height: 784 km
right ascension of ascending node: 139.1204°
argument of perigee: 0.5234°
revolutions per day: 14.33466667
mean anomaly at epoch: 26.7910°
orbit number at epoch: 16054

The dashed part of the orbit path shows where the satellite is in the earth's shadow,  

DLR